Notices

What's New in latest Release from April 7th, 2021:

- Updated Glossary, including Speed of Maximum Gust, and Total Hourly Precipitation

- Updated national and regional climate services offices contacts and prices information

- Addition of station inventory lists for 1981-2010, 1971-2000, and 1961-1990 Normals.

If you haven't already, please take our survey and provide feedback about our website: https://eccc.sondage-survey.ca/f/LanguageSelection.aspx?s=442ca660-fcf1-47c0-95a9-59707d6fd709

Hourly Data Report for May 12, 2003

TORONTO CITY
ONTARIO

43°40'00.000" N
79°24'00.000" W
112.50 m
6158355
71508
XTO

Download Data

Hourly Data (May 2003)
Hourly Data Report for May 12, 2003
TIME
LST
Temp Definition
°C
Dew Point Definition
°C
Rel Hum Definition
%
Precip. Amount Definition
mm

Wind Dir Definition
10's deg

Wind Spd Definition
km/h
Visibility Definition
km
Stn Press Definition
kPa
Hmdx Definition


Wind Chill Definition


Weather Definition


00:00 10.2 6.9 80   LegendMM LegendMM LegendMM 98.02     LegendNANA
01:00 9.9 7.2 83   LegendMM LegendMM LegendMM 97.95     LegendNANA
02:00 9.5 6.9 84   LegendMM LegendMM LegendMM 97.87     LegendNANA
03:00 9.7 7.2 84   LegendMM LegendMM LegendMM 97.79     LegendNANA
04:00 9.3 7.3 87   LegendMM LegendMM LegendMM 97.75     LegendNANA
05:00 9.0 7.5 90   LegendMM LegendMM LegendMM 97.77     LegendNANA
06:00 9.5 6.9 84   LegendMM LegendMM LegendMM 97.81     LegendNANA
07:00 9.4 7.0 85   LegendMM LegendMM LegendMM 97.85     LegendNANA
08:00 9.7 7.1 84   LegendMM LegendMM LegendMM 97.91     LegendNANA
09:00 10.0 7.3 83   LegendMM LegendMM LegendMM 97.95     LegendNANA
10:00 10.6 6.9 78   LegendMM LegendMM LegendMM 97.98     LegendNANA
11:00 10.9 6.7 75   LegendMM LegendMM LegendMM 98.01     LegendNANA
12:00 10.4 7.8 84   LegendMM LegendMM LegendMM 98.06     LegendNANA
13:00 10.5 8.1 85   LegendMM LegendMM LegendMM 98.13     LegendNANA
14:00 11.0 9.3 89   LegendMM LegendMM LegendMM 98.21     LegendNANA
15:00 11.5 9.1 85   LegendMM LegendMM LegendMM 98.26     LegendNANA
16:00 12.0 7.9 76   LegendMM LegendMM LegendMM 98.33     LegendNANA
17:00 11.4 8.3 81   LegendMM LegendMM LegendMM 98.43     LegendNANA
18:00 11.5 8.2 80   LegendMM LegendMM LegendMM 98.49     LegendNANA
19:00 11.4 7.7 78   LegendMM LegendMM LegendMM 98.59     LegendNANA
20:00 10.1 6.6 79   LegendMM LegendMM LegendMM 98.65     LegendNANA
21:00 9.5 6.1 79   LegendMM LegendMM LegendMM 98.71     LegendNANA
22:00 9.2 5.6 78   LegendMM LegendMM LegendMM 98.74     LegendNANA
23:00 8.9 5.1 77   LegendMM LegendMM LegendMM 98.76     LegendNANA

Notes on Data Quality.

Legend

  • E = Estimated
  • M = Missing
  • NA = Not Available*
  • [empty] = Indicates an unobserved value
Date modified: